Comanche, TX

6:30 PM CDT on August 24, 2016 (GMT -0500)
Comanche

Weather History for KMKN - October, 2012

Change the Weather History Date:

Wednesday, October 17, 2012

  Actual Average (KSEP) Record (KSEP)
Temperature  
Mean Temperature 75 °F -  
Max Temperature 86 °F 78 °F 92 °F (1947)
Min Temperature 64 °F 54 °F 34 °F (1952)
Cooling Degree Days 10    
Growing Degree Days 25 (Base 50)    
Moisture  
Dew Point 54 °F    
Average Humidity 57    
Maximum Humidity 94    
Minimum Humidity 22    
Precipitation  
Precipitation 0.00 in - - ()
Sea Level Pressure  
Sea Level Pressure 29.70 in    
Wind  
Wind Speed 16 mph (West)    
Max Wind Speed 25 mph    
Max Gust Speed 34 mph    
Visibility 10 miles    
Events      
Averages and records for this station are not official NWS values.
T = Trace of Precipitation, MM = Missing Value Source: NWS Daily Summary

Daily Weather History Graph

Daily Weather History Graph

Search for Another Location

Airport or City:

Trip Planner

Search our weather history database for the weather conditions in past years. The results will help you decide how hot, cold, wet, or windy it might be!

Date:

Astronomy

Oct. 17, 2012 Rise Set
Actual Time 7:39 AM CDT 6:59 PM CDT
Civil Twilight 7:14 AM CDT 7:23 PM CDT
Nautical Twilight 6:46 AM CDT 7:52 PM CDT
Astronomical Twilight 6:18 AM CDT 8:20 PM CDT
Moon 10:04 AM CDT (10/17) 8:47 PM CDT (10/17)
Length of Visible Light 12h 08m
Length of Day
11h 19m
Waxing Crescent, 7% of the Moon is Illuminated
Oct 17
Waxing Crescent
Oct 21
First Quarter
Oct 29
Full
Nov 6
Last Quarter
Nov 13
New

Hourly Weather History & Observations

Time (CDT) Temp. Heat Index Dew Point Humidity Pressure Visibility Wind Dir Wind Speed Gust Speed Precip Events Conditions
12:35 AM 68.0 °F - 64.4 °F 88% 29.70 in 10.0 mi SSW 21.9 mph 28.8 mph N/A   Clear
12:55 AM 68.0 °F - 64.4 °F 88% 29.70 in 10.0 mi SSW 25.3 mph 34.5 mph N/A   Clear
1:15 AM 68.0 °F - 64.4 °F 88% 29.70 in 10.0 mi SSW 23.0 mph 29.9 mph N/A   Scattered Clouds
1:35 AM 68.0 °F - 64.4 °F 88% 29.70 in 10.0 mi SSW 20.7 mph 33.4 mph N/A   Scattered Clouds
1:55 AM 68.0 °F - 64.4 °F 88% 29.70 in 10.0 mi SSW 20.7 mph 32.2 mph N/A   Clear
2:15 AM 68.0 °F - 64.4 °F 88% 29.70 in 10.0 mi SSW 19.6 mph 28.8 mph N/A   Clear
2:55 AM 68.0 °F - 64.4 °F 88% 29.69 in 10.0 mi SSW 20.7 mph 28.8 mph N/A   Clear
3:15 AM 68.0 °F - 64.4 °F 88% 29.69 in 10.0 mi SSW 18.4 mph 29.9 mph N/A   Clear
3:35 AM 68.0 °F - 64.4 °F 88% 29.68 in 10.0 mi SSW 23.0 mph 31.1 mph N/A   Clear
3:55 AM 68.0 °F - 64.4 °F 88% 29.68 in 10.0 mi SSW 19.6 mph 27.6 mph N/A   Clear
4:15 AM 68.0 °F - 64.4 °F 88% 29.68 in 10.0 mi SSW 23.0 mph 31.1 mph N/A   Clear
4:35 AM 68.0 °F - 64.4 °F 88% 29.67 in 10.0 mi SSW 17.3 mph 28.8 mph N/A   Scattered Clouds
4:55 AM 68.0 °F - 64.4 °F 88% 29.67 in 10.0 mi SSW 20.7 mph 27.6 mph N/A   Scattered Clouds
5:15 AM 68.0 °F - 64.4 °F 88% 29.67 in 10.0 mi SSW 18.4 mph 31.1 mph N/A   Scattered Clouds
5:35 AM 68.0 °F - 64.4 °F 88% 29.67 in 10.0 mi SSW 20.7 mph 27.6 mph N/A   Scattered Clouds
5:55 AM 66.2 °F - 64.4 °F 94% 29.66 in 10.0 mi SSW 19.6 mph 28.8 mph N/A   Clear
6:15 AM 66.2 °F - 64.4 °F 94% 29.65 in 10.0 mi SSW 19.6 mph 29.9 mph N/A   Clear
6:35 AM 66.2 °F - 64.4 °F 94% 29.65 in 10.0 mi SSW 16.1 mph 23.0 mph N/A   Clear
6:55 AM 66.2 °F - 62.6 °F 88% 29.65 in 10.0 mi SSW 16.1 mph 23.0 mph N/A   Clear
7:15 AM 66.2 °F - 62.6 °F 88% 29.66 in 10.0 mi SSW 17.3 mph 21.9 mph N/A   Clear
7:35 AM 66.2 °F - 62.6 °F 88% 29.67 in 10.0 mi SSW 13.8 mph 20.7 mph N/A   Clear
7:55 AM 66.2 °F - 62.6 °F 88% 29.67 in 10.0 mi South 15.0 mph 24.2 mph N/A   Clear
8:15 AM 66.2 °F - 62.6 °F 88% 29.66 in 10.0 mi SSW 17.3 mph 23.0 mph N/A   Clear
8:35 AM 68.0 °F - 62.6 °F 83% 29.66 in 10.0 mi SSW 17.3 mph 25.3 mph N/A   Clear
8:55 AM 68.0 °F - 64.4 °F 88% 29.65 in 10.0 mi SSW 17.3 mph 23.0 mph N/A   Clear
9:15 AM 69.8 °F - 64.4 °F 83% 29.64 in 10.0 mi SW 20.7 mph 28.8 mph N/A   Clear
9:35 AM 69.8 °F - 64.4 °F 83% 29.65 in 10.0 mi SW 20.7 mph 28.8 mph N/A   Clear
9:55 AM 71.6 °F - 64.4 °F 78% 29.65 in 10.0 mi SW 21.9 mph 31.1 mph N/A   Clear
10:15 AM 73.4 °F - 62.6 °F 69% 29.66 in 10.0 mi North - - N/A   Clear
10:35 AM 77.0 °F - 62.6 °F 61% 29.66 in 10.0 mi SW 19.6 mph 29.9 mph N/A   Clear
10:55 AM 78.8 °F - 62.6 °F 57% 29.68 in 10.0 mi North - - N/A   Clear
11:15 AM 78.8 °F - 60.8 °F 54% 29.69 in 10.0 mi West 19.6 mph 26.5 mph N/A   Clear
11:35 AM 80.6 °F 81.5 °F 60.8 °F 51% 29.69 in 10.0 mi WSW 18.4 mph 24.2 mph N/A   Clear
11:55 AM 80.6 °F 81.1 °F 59.0 °F 48% 29.69 in 10.0 mi West 15.0 mph 25.3 mph N/A   Clear
12:15 PM 80.6 °F 80.5 °F 55.4 °F 42% 29.69 in 10.0 mi West 18.4 mph 26.5 mph N/A   Clear
12:35 PM 80.6 °F 80.3 °F 53.6 °F 39% 29.69 in 10.0 mi WNW 12.7 mph 21.9 mph N/A   Clear
12:55 PM 82.4 °F 81.4 °F 53.6 °F 37% 29.69 in 10.0 mi West 12.7 mph 20.7 mph N/A   Clear
1:15 PM 82.4 °F 81.4 °F 53.6 °F 37% 29.69 in 10.0 mi West 10.4 mph 20.7 mph N/A   Clear
1:35 PM 84.2 °F - 46.4 °F 27% 29.68 in 10.0 mi NW 10.4 mph 21.9 mph N/A   Clear
1:55 PM 84.2 °F - 46.4 °F 27% 29.69 in 10.0 mi NW 13.8 mph 18.4 mph N/A   Clear
2:15 PM 84.2 °F - 44.6 °F 25% 29.68 in 10.0 mi WNW 8.1 mph 16.1 mph N/A   Clear
2:35 PM 84.2 °F - 44.6 °F 25% 29.67 in 10.0 mi NNW 4.6 mph - N/A   Clear
2:55 PM 84.2 °F - 44.6 °F 25% 29.68 in 10.0 mi NNW 11.5 mph - N/A   Clear
3:15 PM 84.2 °F - 42.8 °F 23% 29.67 in 10.0 mi NW 5.8 mph - N/A   Clear
3:35 PM 86.0 °F - 42.8 °F 22% 29.66 in 10.0 mi North 11.5 mph - N/A   Clear
3:55 PM 86.0 °F - 42.8 °F 22% 29.67 in 10.0 mi North 9.2 mph - N/A   Clear
4:15 PM 86.0 °F - 42.8 °F 22% 29.68 in 10.0 mi NNW 8.1 mph - N/A   Clear
4:35 PM 84.2 °F - 42.8 °F 23% 29.68 in 10.0 mi North 9.2 mph - N/A   Clear
4:55 PM 84.2 °F - 42.8 °F 23% 29.68 in 10.0 mi North 9.2 mph - N/A   Clear
5:15 PM 84.2 °F - 42.8 °F 23% 29.69 in 10.0 mi NNW 9.2 mph - N/A   Clear
5:35 PM 82.4 °F - 42.8 °F 25% 29.70 in 10.0 mi NNW 8.1 mph - N/A   Clear
5:55 PM 82.4 °F - 42.8 °F 25% 29.70 in 10.0 mi North 9.2 mph - N/A   Clear
6:15 PM 82.4 °F - 42.8 °F 25% 29.71 in 10.0 mi North 8.1 mph - N/A   Clear
6:35 PM 78.8 °F - 42.8 °F 28% 29.72 in 10.0 mi North 8.1 mph - N/A   Clear
6:55 PM 77.0 °F - 42.8 °F 29% 29.73 in 10.0 mi North 8.1 mph - N/A   Clear
7:15 PM 75.2 °F - 42.8 °F 31% 29.74 in 10.0 mi North 3.5 mph - N/A   Clear
7:35 PM 73.4 °F - 44.6 °F 36% 29.75 in 10.0 mi North 5.8 mph - N/A   Clear
7:55 PM 71.6 °F - 44.6 °F 38% 29.75 in 10.0 mi North 4.6 mph - N/A   Clear
8:15 PM 71.6 °F - 44.6 °F 38% 29.77 in 10.0 mi North 4.6 mph - N/A   Clear
8:35 PM 71.6 °F - 44.6 °F 38% 29.78 in 10.0 mi NNE 3.5 mph - N/A   Clear
8:55 PM 69.8 °F - 44.6 °F 40% 29.78 in 10.0 mi North 3.5 mph - N/A   Clear
9:15 PM 69.8 °F - 44.6 °F 40% 29.79 in 10.0 mi North 4.6 mph - N/A   Clear
9:35 PM 68.0 °F - 44.6 °F 43% 29.80 in 10.0 mi North 5.8 mph - N/A   Clear
9:55 PM 66.2 °F - 44.6 °F 46% 29.80 in 10.0 mi North 5.8 mph - N/A   Clear
10:15 PM 64.4 °F - 44.6 °F 49% 29.81 in 10.0 mi North 3.5 mph - N/A   Clear
10:35 PM 64.4 °F - 44.6 °F 49% 29.81 in 10.0 mi NE 4.6 mph - N/A   Clear
10:55 PM 64.4 °F - 44.6 °F 49% 29.80 in 10.0 mi ENE 4.6 mph - N/A   Clear
11:15 PM 64.4 °F - 44.6 °F 49% 29.82 in 10.0 mi Calm Calm - N/A   Clear
11:35 PM 64.4 °F - 44.6 °F 49% 29.82 in 10.0 mi Calm Calm - N/A   Clear
11:55 PM 64.4 °F - 42.8 °F 45% 29.82 in 10.0 mi East 3.5 mph - N/A   Clear